TimeCDT,TemperatureF,Dew PointF,Humidity,Sea Level PressureIn,VisibilityMPH,Wind Direction,Wind SpeedMPH,Gust SpeedMPH,PrecipitationIn,Events,Conditions,WindDirDegrees,DateUTC
12:13 AM,33.8,33.8,100,29.97,3.0,North,13.8,-,N/A,,Overcast,10,2013-04-18 05:13:00
12:33 AM,33.8,33.8,100,29.96,3.0,NNE,12.7,-,N/A,Snow,Light Snow,20,2013-04-18 05:33:00
12:52 AM,33.8,33.8,100,29.95,5.0,North,12.7,-,N/A,,Overcast,10,2013-04-18 05:52:00
1:13 AM,33.8,33.8,100,29.93,10.0,NNE,12.7,19.6,N/A,,Overcast,20,2013-04-18 06:13:00
1:33 AM,33.8,33.8,100,29.89,10.0,NNE,13.8,-,N/A,,Overcast,20,2013-04-18 06:33:00
1:52 AM,33.8,33.8,100,29.89,10.0,NNE,13.8,-,N/A,,Overcast,20,2013-04-18 06:52:00
2:13 AM,33.8,33.8,100,29.86,10.0,NNE,13.8,19.6,N/A,,Overcast,20,2013-04-18 07:13:00
2:32 AM,33.8,33.8,100,29.89,10.0,NNE,11.5,16.1,N/A,,Overcast,20,2013-04-18 07:32:00
2:53 AM,33.8,33.8,100,29.88,10.0,North,10.4,-,N/A,,Overcast,360,2013-04-18 07:53:00
3:13 AM,33.8,32.0,93,29.87,10.0,North,11.5,18.4,N/A,,Overcast,360,2013-04-18 08:13:00
3:32 AM,33.8,32.0,93,29.88,10.0,North,10.4,-,N/A,,Overcast,360,2013-04-18 08:32:00
3:53 AM,33.8,32.0,93,29.89,10.0,North,10.4,-,N/A,,Overcast,350,2013-04-18 08:53:00
4:13 AM,32.0,32.0,100,29.90,10.0,NNW,10.4,-,N/A,,Overcast,340,2013-04-18 09:13:00
4:32 AM,33.8,32.0,93,29.90,4.0,North,11.5,-,N/A,,Overcast,350,2013-04-18 09:32:00
4:53 AM,32.0,32.0,100,29.85,3.0,North,11.5,16.1,N/A,,Overcast,360,2013-04-18 09:53:00
5:13 AM,32.0,32.0,100,29.83,5.0,North,12.7,-,N/A,,Overcast,10,2013-04-18 10:13:00
5:32 AM,32.0,32.0,100,29.86,5.0,North,9.2,-,N/A,,Overcast,350,2013-04-18 10:32:00
5:53 AM,32.0,32.0,100,29.82,7.0,North,13.8,-,N/A,,Overcast,10,2013-04-18 10:53:00
6:13 AM,32.0,32.0,100,29.83,7.0,North,15.0,-,N/A,,Overcast,360,2013-04-18 11:13:00
6:32 AM,32.0,32.0,100,29.80,7.0,North,13.8,19.6,N/A,,Overcast,360,2013-04-18 11:32:00
6:53 AM,32.0,32.0,100,29.81,10.0,North,15.0,19.6,N/A,,Overcast,350,2013-04-18 11:53:00
7:13 AM,32.0,32.0,100,29.79,10.0,North,13.8,23.0,N/A,,Overcast,360,2013-04-18 12:13:00
7:33 AM,32.0,30.2,93,29.81,10.0,North,15.0,19.6,N/A,,Overcast,350,2013-04-18 12:33:00
7:53 AM,32.0,30.2,93,29.80,10.0,North,16.1,20.7,N/A,,Overcast,360,2013-04-18 12:53:00
8:13 AM,32.0,30.2,93,29.79,10.0,North,16.1,21.9,N/A,,Overcast,360,2013-04-18 13:13:00
8:32 AM,32.0,30.2,93,29.78,10.0,North,15.0,26.5,N/A,,Overcast,350,2013-04-18 13:32:00
8:53 AM,32.0,30.2,93,29.77,10.0,North,13.8,24.2,N/A,,Overcast,360,2013-04-18 13:53:00
9:13 AM,32.0,30.2,93,29.73,10.0,North,17.3,25.3,N/A,,Overcast,360,2013-04-18 14:13:00
9:33 AM,32.0,30.2,93,29.71,10.0,North,18.4,25.3,N/A,,Overcast,360,2013-04-18 14:33:00
9:53 AM,32.0,30.2,93,29.71,7.0,North,16.1,26.5,N/A,,Overcast,360,2013-04-18 14:53:00
10:13 AM,32.0,30.2,93,29.72,10.0,North,15.0,23.0,N/A,,Overcast,360,2013-04-18 15:13:00
10:33 AM,32.0,30.2,93,29.72,1.8,North,15.0,-,N/A,Snow,Light Snow,360,2013-04-18 15:33:00
10:53 AM,32.0,32.0,100,29.74,1.0,North,13.8,20.7,N/A,Snow,Light Snow,360,2013-04-18 15:53:00
11:13 AM,32.0,32.0,100,29.73,0.2,North,13.8,-,N/A,Snow,Snow,350,2013-04-18 16:13:00
11:33 AM,32.0,32.0,100,29.72,0.5,North,11.5,-,N/A,Snow,Light Snow,350,2013-04-18 16:33:00
11:53 AM,33.8,32.0,93,29.71,0.8,North,16.1,20.7,N/A,Snow,Light Snow,360,2013-04-18 16:53:00
12:13 PM,33.8,33.8,100,29.72,0.8,NNW,15.0,-,N/A,Snow,Light Snow,340,2013-04-18 17:13:00
12:33 PM,33.8,33.8,100,29.70,1.0,North,17.3,-,N/A,Snow,Light Snow,350,2013-04-18 17:33:00
12:53 PM,33.8,32.0,93,29.69,1.2,North,17.3,-,N/A,Snow,Light Snow,350,2013-04-18 17:53:00
1:13 PM,33.8,33.8,100,29.69,2.0,North,17.3,23.0,N/A,Snow,Light Snow,350,2013-04-18 18:13:00
1:33 PM,33.8,33.8,100,29.69,1.2,North,17.3,21.9,N/A,Snow,Light Snow,350,2013-04-18 18:33:00
1:53 PM,33.8,33.8,100,29.68,1.0,North,17.3,21.9,N/A,Snow,Light Snow,350,2013-04-18 18:53:00
2:13 PM,33.8,33.8,100,29.68,1.0,North,19.6,24.2,N/A,Snow,Light Snow,350,2013-04-18 19:13:00
2:33 PM,33.8,33.8,100,29.67,0.5,North,16.1,24.2,N/A,Snow,Light Snow,350,2013-04-18 19:33:00
2:53 PM,33.8,33.8,100,29.65,0.8,North,18.4,23.0,N/A,Snow,Light Snow,350,2013-04-18 19:53:00
3:33 PM,33.8,33.8,100,29.65,0.8,North,18.4,25.3,N/A,Snow,Light Snow,350,2013-04-18 20:33:00
3:53 PM,33.8,33.8,100,29.65,0.5,North,19.6,25.3,N/A,Snow,Light Snow,350,2013-04-18 20:53:00
4:13 PM,33.8,33.8,100,29.64,0.8,North,18.4,27.6,N/A,Snow,Light Snow,350,2013-04-18 21:13:00
4:33 PM,33.8,33.8,100,29.63,0.8,North,19.6,25.3,N/A,Snow,Light Snow,350,2013-04-18 21:33:00
4:53 PM,33.8,33.8,100,29.62,-9999.0,NNW,24.2,28.8,N/A,,Overcast,340,2013-04-18 21:53:00
5:13 PM,33.8,33.8,100,29.62,-9999.0,North,21.9,34.5,N/A,,Overcast,350,2013-04-18 22:13:00
5:33 PM,33.8,32.0,93,29.62,-9999.0,North,19.6,34.5,N/A,,Unknown,350,2013-04-18 22:33:00
5:52 PM,33.8,32.0,93,29.63,-9999.0,NNW,19.6,-,N/A,,Overcast,340,2013-04-18 22:52:00
6:13 PM,-9999,-9999,N/A,-9999,-9999.0,North,-9999.0,-,N/A,,Unknown,0,2013-04-18 23:13:00
6:33 PM,33.8,33.8,100,29.63,-9999.0,NNW,23.0,27.6,N/A,,Overcast,340,2013-04-18 23:33:00
6:52 PM,32.0,32.0,100,29.63,-9999.0,NNW,21.9,28.8,N/A,,Overcast,340,2013-04-18 23:52:00
7:13 PM,32.0,32.0,100,29.64,-9999.0,NNW,23.0,29.9,N/A,,Overcast,340,2013-04-19 00:13:00
7:33 PM,32.0,32.0,100,29.64,-9999.0,NNW,21.9,27.6,N/A,,Overcast,340,2013-04-19 00:33:00
7:52 PM,32.0,32.0,100,29.65,-9999.0,NNW,19.6,-,N/A,,Overcast,340,2013-04-19 00:52:00
8:13 PM,32.0,32.0,100,29.65,-9999.0,NNW,17.3,-,N/A,,Overcast,330,2013-04-19 01:13:00
8:33 PM,32.0,32.0,100,29.66,-9999.0,NNW,17.3,28.8,N/A,,Unknown,340,2013-04-19 01:33:00
8:52 PM,32.0,32.0,100,29.66,-9999.0,NNW,17.3,-,N/A,,Overcast,330,2013-04-19 01:52:00
9:13 PM,32.0,32.0,100,29.66,-9999.0,NNW,19.6,-,N/A,,Overcast,330,2013-04-19 02:13:00
9:33 PM,32.0,32.0,100,29.66,-9999.0,NW,17.3,29.9,N/A,,Overcast,320,2013-04-19 02:33:00
9:53 PM,30.2,30.2,100,29.65,-9999.0,NW,20.7,25.3,N/A,,Overcast,320,2013-04-19 02:53:00
10:32 PM,30.2,30.2,100,29.64,-9999.0,NNW,19.6,27.6,N/A,,Unknown,330,2013-04-19 03:32:00
10:53 PM,30.2,30.2,100,29.63,-9999.0,NW,19.6,27.6,N/A,,Unknown,320,2013-04-19 03:53:00
11:13 PM,30.2,30.2,100,29.62,-9999.0,NW,17.3,25.3,N/A,,Unknown,320,2013-04-19 04:13:00
11:33 PM,30.2,30.2,100,29.61,-9999.0,NW,17.3,27.6,N/A,,Unknown,320,2013-04-19 04:33:00
11:53 PM,30.2,30.2,100,29.61,-9999.0,NW,19.6,25.3,N/A,,Unknown,320,2013-04-19 04:53:00